GW6273 Weather Reports


Display with metric or nautical units.
time (UTC)temp
F
wind
direction
speed
MPH
gust
MPH
rain 1hr
in
rain 24hr
in
rain mn
in
humidity
%
barometer
mb
20260505051008 54 66 0.0 2.0 0.00 0.00 0.00 74 983.2
20260505050503 54 89 0.0 1.0 0.00 0.00 0.00 74 983.2
20260505041514 56 93 0.0 2.0 0.00 0.00 0.00 71 983.2
20260505041009 56 122 0.0 0.0 0.00 0.00 0.00 72 983.3
20260505040504 56 25 0.0 0.0 0.00 0.00 0.00 71 983.1
20260505040100 56 30 0.0 0.0 0.00 0.00 0.00 72 983.0
20260505035555 56 101 0.0 1.0 0.00 0.00 0.00 70 982.9
20260505035050 56 50 0.0 1.0 0.00 0.00 0.00 70 983.1
20260505034545 57 55 0.0 0.0 0.00 0.00 0.00 69 983.2
20260505034045 57 120 0.0 0.0 0.00 0.00 0.00 68 983.2
20260505033541 57 129 0.0 0.0 0.00 0.00 0.00 67 983.2
20260505033031 58 66 0.0 0.0 0.00 0.00 0.00 68 983.1
20260505032526 58 142 0.0 0.0 0.00 0.00 0.00 67 983.1
20260505032020 58 142 0.0 1.0 0.00 0.00 0.00 67 983.1
20260505031516 58 125 0.0 1.0 0.00 0.00 0.00 66 983.0
20260505031010 58 144 0.0 1.0 0.00 0.00 0.00 67 983.2
20260505030506 58 131 0.0 1.0 0.00 0.00 0.00 65 983.2
20260505025556 59 129 0.0 1.0 0.00 0.00 0.00 64 983.3
20260505025052 59 66 0.0 0.0 0.00 0.00 0.00 64 983.3
20260505024546 60 66 0.0 0.0 0.00 0.00 0.00 63 983.1
20260505024046 60 129 0.0 1.0 0.00 0.00 0.00 62 983.3
20260505023536 60 315 0.0 0.0 0.00 0.00 0.00 62 983.2
20260505023031 60 125 2.0 2.0 0.00 0.00 0.00 60 983.1
20260505022525 61 130 0.0 1.0 0.00 0.00 0.00 61 983.1
20260505022026 61 309 0.0 1.0 0.00 0.00 0.00 60 982.9
20260505021516 61 202 0.0 1.0 0.00 0.00 0.00 59 983.2
20260505021016 61 135 1.0 2.0 0.00 0.00 0.00 59 983.2
20260505020506 61 126 1.0 1.0 0.00 0.00 0.00 60 983.1
20260505020001 61 135 0.0 1.0 0.00 0.00 0.00 61 983.1
20260505015556 62 142 0.0 0.0 0.00 0.00 0.00 59 982.8
20260505015051 62 129 0.0 1.0 0.00 0.00 0.00 60 982.9
20260505014546 62 180 0.0 2.0 0.00 0.00 0.00 58 982.6
20260505014042 62 129 0.0 0.0 0.00 0.00 0.00 59 982.8
20260505013537 62 150 0.0 1.0 0.00 0.00 0.00 57 982.9
20260505013032 63 147 0.0 1.0 0.00 0.00 0.00 56 982.6
20260505012527 63 139 0.0 0.0 0.00 0.00 0.00 54 982.9
20260505012021 63 125 0.0 0.0 0.00 0.00 0.00 53 982.7
20260505011517 64 135 0.0 0.0 0.00 0.00 0.00 54 982.7
20260505011012 64 129 0.0 0.0 0.00 0.00 0.00 53 982.7
20260505010512 64 129 0.0 1.0 0.00 0.00 0.00 53 982.5
20260505010006 65 168 0.0 1.0 0.00 0.00 0.00 52 982.5
20260505005558 65 135 0.0 1.0 0.00 0.00 0.00 51 982.4
20260505005052 66 136 1.0 1.0 0.00 0.00 0.00 51 982.4
20260505004548 66 129 0.0 1.0 0.00 0.00 0.00 49 982.4
20260505004042 67 164 0.0 2.0 0.00 0.00 0.00 49 982.3
20260505003538 67 147 0.0 2.0 0.00 0.00 0.00 47 982.3
20260505003033 68 143 0.0 1.0 0.00 0.00 0.00 46 982.3
20260505002528 68 173 0.0 0.0 0.00 0.00 0.00 46 982.1
20260505002023 69 195 0.0 1.0 0.00 0.00 0.00 45 982.1
20260505001518 70 173 0.0 1.0 0.00 0.00 0.00 43 982.1
20260505001013 70 202 0.0 1.0 0.00 0.00 0.00 44 982.3
20260505000513 71 168 0.0 1.0 0.00 0.00 0.00 41 982.1
20260505000003 72 199 1.0 1.0 0.00 0.00 0.00 41 982.0
20260504235559 72 200 0.0 1.0 0.00 0.00 0.00 40 981.9
20260504235054 73 180 0.0 1.0 0.00 0.00 0.00 38 981.9
20260504234549 73 212 0.0 2.0 0.00 0.00 0.00 37 982.1
20260504234044 73 199 1.0 2.0 0.00 0.00 0.00 39 982.0
20260504233539 74 196 2.0 2.0 0.00 0.00 0.00 39 981.9
20260504233034 74 214 0.0 2.0 0.00 0.00 0.00 38 982.0
20260504232529 75 224 0.0 2.0 0.00 0.00 0.00 36 982.2
20260504232029 75 300 2.0 2.0 0.00 0.00 0.00 35 982.1
20260504231518 75 212 0.0 2.0 0.00 0.00 0.00 36 982.0
20260504231014 75 290 0.0 4.0 0.00 0.00 0.00 36 982.1
20260504230508 76 319 1.0 4.0 0.00 0.00 0.00 33 982.3
20260504230004 77 223 2.0 2.0 0.00 0.00 0.00 34 982.4
20260504225600 77 89 2.0 3.0 0.00 0.00 0.00 33 982.2
20260504225055 78 225 0.0 2.0 0.00 0.00 0.00 31 982.2
20260504224550 78 138 1.0 2.0 0.00 0.00 0.00 31 982.1
20260504224045 79 27 2.0 4.0 0.00 0.00 0.00 31 982.3
20260504223541 79 127 2.0 5.0 0.00 0.00 0.00 33 982.4
20260504223036 79 249 1.0 9.0 0.00 0.00 0.00 32 982.3
20260504222530 80 123 0.0 4.0 0.00 0.00 0.00 31 982.3
20260504222026 79 253 2.0 3.0 0.00 0.00 0.00 33 982.4
20260504221521 78 82 2.0 4.0 0.00 0.00 0.00 34 982.2
20260504221016 79 301 2.0 4.0 0.00 0.00 0.00 34 982.2
20260504220511 78 197 0.0 2.0 0.00 0.00 0.00 36 982.3
20260504220005 77 245 0.0 2.0 0.00 0.00 0.00 36 982.4
20260504215101 77 259 2.0 2.0 0.00 0.00 0.00 33 982.1
20260504214551 78 318 3.0 3.0 0.00 0.00 0.00 31 982.3
20260504214051 78 60 1.0 4.0 0.00 0.00 0.00 32 982.1
20260504213542 77 204 0.0 2.0 0.00 0.00 0.00 34 982.1
20260504213041 76 283 0.0 2.0 0.00 0.00 0.00 36 982.2
20260504212532 77 147 2.0 3.0 0.00 0.00 0.00 36 982.2
20260504212032 77 154 0.0 2.0 0.00 0.00 0.00 35 982.2
20260504211527 79 89 0.0 4.0 0.00 0.00 0.00 30 982.2
20260504211016 80 318 3.0 5.0 0.00 0.00 0.00 28 982.2
20260504210512 79 275 2.0 2.0 0.00 0.00 0.00 31 982.1
20260504210006 77 232 0.0 2.0 0.00 0.00 0.00 33 982.3
20260504205501 77 139 2.0 5.0 0.00 0.00 0.00 34 982.4
20260504205058 77 336 0.0 3.0 0.00 0.00 0.00 32 982.4
20260504204552 77 232 2.0 4.0 0.00 0.00 0.00 32 982.6
20260504204048 78 81 2.0 6.0 0.00 0.00 0.00 30 982.6
20260504203542 79 258 3.0 6.0 0.00 0.00 0.00 30 982.5
20260504203037 79 139 1.0 4.0 0.00 0.00 0.00 29 982.6
20260504202532 79 289 3.0 4.0 0.00 0.00 0.00 31 982.7
20260504202032 78 300 1.0 4.0 0.00 0.00 0.00 28 982.5
20260504201527 78 117 2.0 4.0 0.00 0.00 0.00 28 983.0
20260504201017 78 265 0.0 7.0 0.00 0.00 0.00 27 982.8
20260504200517 79 289 10.0 10.0 0.00 0.00 0.00 29 982.8
20260504200012 78 259 2.0 3.0 0.00 0.00 0.00 28 983.1
20260504195501 79 240 1.0 5.0 0.00 0.00 0.00 30 983.0
20260504195057 78 232 3.0 3.0 0.00 0.00 0.00 29 982.8
20260504194553 78 94 5.0 6.0 0.00 0.00 0.00 30 983.1
20260504194048 79 95 2.0 5.0 0.00 0.00 0.00 29 983.1
20260504193544 81 283 3.0 5.0 0.00 0.00 0.00 30 983.2
20260504193044 81 180 2.0 4.0 0.00 0.00 0.00 29 983.3
20260504192533 79 227 2.0 5.0 0.00 0.00 0.00 32 983.4
20260504192033 80 331 3.0 4.0 0.00 0.00 0.00 31 983.3
20260504191523 79 95 0.0 5.0 0.00 0.00 0.00 33 983.6
20260504191018 79 349 2.0 3.0 0.00 0.00 0.00 31 983.6
20260504190518 80 146 2.0 4.0 0.00 0.00 0.00 31 983.8
20260504190008 78 101 2.0 4.0 0.00 0.00 0.00 31 983.6
20260504185503 78 229 4.0 4.0 0.00 0.00 0.00 29 983.7
20260504185059 76 124 0.0 4.0 0.00 0.00 0.00 31 983.9
20260504184555 77 85 4.0 5.0 0.00 0.00 0.00 31 984.0
20260504184049 77 328 3.0 8.0 0.00 0.00 0.00 31 983.9
20260504183545 77 304 3.0 4.0 0.00 0.00 0.00 32 984.0
20260504183039 78 252 4.0 4.0 0.00 0.00 0.00 30 984.2
20260504182534 77 264 1.0 3.0 0.00 0.00 0.00 30 984.3
20260504182030 76 222 2.0 4.0 0.00 0.00 0.00 33 984.2
20260504181524 76 103 4.0 5.0 0.00 0.00 0.00 33 984.3
20260504181019 77 66 0.0 3.0 0.00 0.00 0.00 30 984.6
20260504180515 77 168 2.0 4.0 0.00 0.00 0.00 30 984.4
20260504180014 76 319 2.0 3.0 0.00 0.00 0.00 34 984.5
20260504175510 77 313 4.0 6.0 0.00 0.00 0.00 31 984.6
20260504175100 76 221 2.0 5.0 0.00 0.00 0.00 32 984.6
20260504174555 76 297 2.0 5.0 0.00 0.00 0.00 35 984.7
20260504174055 75 75 2.0 4.0 0.00 0.00 0.00 36 984.5
20260504173551 74 272 2.0 7.0 0.00 0.00 0.00 34 984.9
20260504173041 75 211 4.0 6.0 0.00 0.00 0.00 33 985.0
20260504172540 76 12 1.0 6.0 0.00 0.00 0.00 34 985.0
20260504172030 75 122 3.0 4.0 0.00 0.00 0.00 32 984.9
20260504171526 75 333 3.0 4.0 0.00 0.00 0.00 37 984.9
20260504171021 75 195 3.0 5.0 0.00 0.00 0.00 34 985.1
20260504170515 74 116 2.0 7.0 0.00 0.00 0.00 34 985.1
20260504151021 68 285 2.0 6.0 0.00 0.00 0.00 43 986.2
20260504150521 68 223 1.0 5.0 0.00 0.00 0.00 44 986.2
20260504141022 66 298 3.0 5.0 0.00 0.00 0.00 46 986.7
20260504140518 66 215 3.0 4.0 0.00 0.00 0.00 47 986.5
20260504130519 61 179 0.0 1.0 0.00 0.00 0.00 63 986.6
20260504110521 43 94 1.0 2.0 0.00 0.00 0.00 94 985.8
20260504100527 45 49 0.0 1.0 0.00 0.00 0.00 91 985.7
20260504081533 45 76 0.0 1.0 0.00 0.00 0.00 87 985.9
20260504081028 45 69 0.0 1.0 0.00 0.00 0.00 86 985.8
20260504080523 45 63 0.0 1.0 0.00 0.00 0.00 86 985.7